Helicity
89 81 67 76 84 95 86 74 81 67 54 48 46 35 30 34 34 35 42 50 65 79 97 116 145 181 165
79 91 73 64 65 84 89 91 76 69 61 54 49 44 39 33 35 39 41 48 62 80 93 104 123 149 152
93 84 80 79 80 80 90 84 88 78 65 55 55 47 42 43 42 39 41 47 55 69 86 99 111 128 136
93 83 89 74 72 78 89 105 102 94 97 86 81 65 58 44 53 64 51 45 48 59 75 88 100 110 121
119 104 100 96 82 72 84 92 106 94 91 100 102 97 92 74 91 77 72 57 46 44 61 79 89 97 101
121 104 90 113 101 107 106 93 102 70 89 127 130 111 114 113 88 78 65 57 58 57 54 62 80 89 98
111 107 106 104 103 94 91 97 106 102 83 109 108 103 115 105 79 66 60 51 53 56 71 78 73 73 86
96 83 69 61 69 79 94 85 94 91 89 94 93 112 120 121 99 90 65 52 50 51 60 76 85 94 90
39 35 33 35 39 73 92 86 85 89 91 108 85 102 105 119 120 120 100 65 54 55 54 74 78 84 94
60 64 57 45 34 54 74 97 99 75 88 96 85 70 100 104 123 116 118 112 68 59 55 58 71 95 104
51 67 69 68 57 63 72 78 96 90 69 85 88 99 89 96 102 119 116 127 135 106 75 55 50 68 86
73 58 61 57 61 61 61 72 87 83 80 108 105 108 101 104 99 100 113 116 125 127 131 132 100 50 62
58 65 35 48 50 66 55 58 63 64 71 102 123 121 123 125 109 109 119 124 131 141 141 134 131 130 114
66 73 55 41 57 74 64 55 50 52 71 67 83 105 111 102 116 121 119 127 124 129 140 141 127 120 107
94 61 48 46 54 69 60 49 40 42 56 71 73 78 77 81 80 79 84 104 101 119 122 117 111 111 101
64 67 57 55 62 73 67 53 41 32 34 58 74 82 75 41 32 70 85 83 88 90 92 85 74 86 84
36 33 50 60 79 71 79 63 36 27 26 36 70 74 70 65 57 -4 76 84 88 78 82 87 88 93 88
Wind_Speed
73 68 67 65 65 60 62 60 58 55 52 51 48 47 47 47 47 46 47 46 43 41 39 37 34 32 31
84 78 74 71 70 69 67 64 62 58 55 52 50 47 45 43 43 43 44 44 43 41 37 34 33 31 29
88 83 80 73 72 68 68 69 67 64 62 58 53 48 45 38 37 38 41 42 40 40 39 36 33 31 29
86 86 82 76 72 75 76 68 72 66 63 58 55 53 49 44 40 36 34 37 39 38 37 37 34 32 30
90 89 87 84 80 76 78 74 71 69 70 65 61 57 53 48 44 41 35 34 32 34 36 34 34 34 31
89 90 90 85 80 80 81 81 80 58 60 61 55 57 51 48 46 45 43 38 35 33 31 32 32 32 32
87 85 87 80 77 82 81 80 78 67 65 72 60 62 56 55 52 50 48 44 40 37 35 35 33 32 32
70 73 72 70 70 73 74 73 70 68 61 73 59 61 56 53 52 52 51 47 44 41 37 37 39 38 36
77 77 77 73 71 67 72 74 77 71 58 65 62 62 57 56 53 53 53 50 46 42 38 37 40 40 41
75 75 71 72 71 69 71 72 70 71 58 59 59 54 58 50 52 53 53 52 48 44 42 39 40 43 45
71 69 69 70 68 64 62 68 70 72 57 53 57 57 56 58 52 49 47 48 46 45 46 45 43 43 46
69 69 68 68 66 63 57 53 53 60 54 49 59 58 59 61 62 55 52 48 48 49 48 48 47 47 48
73 70 66 66 62 56 53 55 55 55 53 50 53 55 56 59 58 58 57 55 51 51 51 50 50 51 52
66 65 64 63 58 55 55 56 57 59 53 51 51 52 56 56 56 58 53 52 49 50 51 51 51 51 52
63 64 63 62 61 58 59 59 61 59 56 52 48 47 50 52 57 58 56 56 54 50 49 56 54 52 52
60 63 65 65 66 63 59 60 63 62 62 57 51 49 49 52 52 56 54 57 54 53 54 59 63 57 55
60 64 66 67 69 68 66 63 63 63 62 59 54 53 53 57 49 44 53 52 52 55 56 55 55 51 47
Wind_Direction
308 310 309 308 307 307 306 306 307 307 309 309 308 306 306 307 308 310 310 311 314 316 319 323 327 330 343
304 304 304 305 304 303 303 303 302 303 303 304 304 304 304 302 304 306 308 308 308 311 315 317 320 322 324
300 301 302 303 302 302 301 300 299 298 298 298 299 301 300 298 299 300 303 304 306 307 307 310 312 313 317
299 299 299 301 299 298 298 299 297 298 297 295 295 296 296 293 293 294 298 300 300 302 304 303 304 306 306
296 296 295 295 294 297 295 296 296 296 293 292 291 291 291 289 288 289 289 293 296 298 299 301 302 302 302
295 294 293 293 294 293 292 291 290 297 296 294 293 289 289 288 286 284 284 284 287 289 292 295 297 298 299
294 293 293 296 295 291 289 288 287 292 292 288 290 286 286 286 284 282 280 279 279 281 282 286 289 291 291
300 299 298 298 295 293 291 290 290 290 289 285 290 287 288 285 282 280 278 275 274 275 275 279 281 283 284
296 295 294 294 295 294 289 287 286 287 287 284 287 286 286 284 283 281 277 274 272 272 271 275 278 279 281
299 297 299 296 294 291 287 285 285 287 286 282 285 284 284 287 286 282 277 275 271 270 270 270 275 278 279
303 302 302 300 300 299 295 285 282 280 288 281 282 283 282 282 286 287 282 276 272 270 270 269 272 275 278
303 302 303 303 303 303 300 299 294 288 291 287 284 281 281 280 278 280 279 277 275 273 272 273 272 272 275
299 301 303 304 304 304 302 301 297 293 290 287 285 284 282 280 280 278 277 276 275 274 272 272 271 273 273
301 301 301 304 302 302 300 299 298 293 290 289 286 284 283 280 278 277 277 276 277 274 273 273 273 273 274
302 300 299 301 299 297 295 295 291 290 290 289 288 287 285 282 278 276 274 274 274 274 274 272 273 275 276
302 299 297 299 296 294 291 289 287 285 284 286 285 285 287 285 279 276 274 274 274 273 274 273 273 276 277
305 301 297 295 293 289 287 284 282 283 282 281 282 280 281 281 287 280 275 274 274 273 273 273 275 277 280